TAM2408 SBGR-SBPS

Flight info

Callsign TAM2408
Flight time 1h 31m
Altitude 39000
Route VUMEV UZ14 NITLU UZ16 OSUNO
Aircraft A20N/M-SDE2E3FGHIRWXY/LB1

Departure

Time 2026-04-25 17:14
Airport São Paulo/Guarulhos–Governor André Franco Montoro International Airport (SBGR)

Arrival

Time 2026-04-25 18:45
Airport Porto Seguro International Airport (SBPS)
Time Latitude Longitude Altitude Speed Heading
2026-04-25 16:47 -23.42843 -46.48062 2455 ft 0 kts 84°
2026-04-25 16:58 -23.42843 -46.48069 2500 ft 2 kts 85°
2026-04-25 16:58 -23.42844 -46.48087 2486 ft 2 kts 92°
2026-04-25 16:59 -23.42842 -46.48105 2469 ft 2 kts 105°
2026-04-25 16:59 -23.42835 -46.48121 2476 ft 2 kts 136°
2026-04-25 16:59 -23.42821 -46.48130 2476 ft 2 kts 169°
2026-04-25 16:59 -23.42812 -46.48132 2476 ft 1 kts 175°
2026-04-25 17:03 -23.42825 -46.48130 2473 ft 4 kts 175°
2026-04-25 17:03 -23.42864 -46.48127 2449 ft 7 kts 175°
2026-04-25 17:03 -23.42918 -46.48133 2461 ft 10 kts 199°
2026-04-25 17:03 -23.42975 -46.48132 2457 ft 7 kts 172°
2026-04-25 17:04 -23.43033 -46.48132 2458 ft 10 kts 182°
2026-04-25 17:04 -23.43095 -46.48117 2460 ft 9 kts 146°
2026-04-25 17:04 -23.43093 -46.48047 2462 ft 11 kts 70°
2026-04-25 17:04 -23.43067 -46.47954 2459 ft 14 kts 73°
2026-04-25 17:05 -23.43037 -46.47841 2462 ft 17 kts 73°
2026-04-25 17:05 -23.42958 -46.47547 2455 ft 23 kts 73°
2026-04-25 17:05 -23.42931 -46.47448 2459 ft 7 kts 73°
2026-04-25 17:06 -23.42907 -46.47356 2456 ft 16 kts 74°
2026-04-25 17:06 -23.42870 -46.47224 2453 ft 20 kts 72°
2026-04-25 17:06 -23.42829 -46.47072 2455 ft 22 kts 73°
2026-04-25 17:06 -23.42783 -46.46903 2456 ft 24 kts 73°
2026-04-25 17:07 -23.42735 -46.46721 2461 ft 26 kts 74°
2026-04-25 17:07 -23.42693 -46.46566 2455 ft 13 kts 73°
2026-04-25 17:07 -23.42664 -46.46457 2459 ft 17 kts 74°
2026-04-25 17:07 -23.42629 -46.46326 2455 ft 19 kts 73°
2026-04-25 17:08 -23.42587 -46.46176 2454 ft 22 kts 73°
2026-04-25 17:08 -23.42539 -46.46009 2452 ft 24 kts 73°
2026-04-25 17:08 -23.42493 -46.45827 2458 ft 26 kts 80°
2026-04-25 17:08 -23.42442 -46.45634 2455 ft 27 kts 72°
2026-04-25 17:09 -23.42391 -46.45450 2451 ft 18 kts 76°
2026-04-25 17:09 -23.42379 -46.45398 2451 ft 8 kts 75°
2026-04-25 17:09 -23.42360 -46.45332 2455 ft 11 kts 72°
2026-04-25 17:09 -23.42334 -46.45241 2450 ft 14 kts 72°
2026-04-25 17:10 -23.42302 -46.45127 2454 ft 17 kts 74°
2026-04-25 17:10 -23.42279 -46.45004 2450 ft 13 kts 81°
2026-04-25 17:10 -23.42328 -46.44926 2449 ft 14 kts 152°
2026-04-25 17:10 -23.42370 -46.44910 2454 ft 0 kts 163°
2026-04-25 17:11 -23.42387 -46.44905 2451 ft 10 kts 163°
2026-04-25 17:12 -23.42481 -46.44889 2452 ft 15 kts 195°
2026-04-25 17:12 -23.42507 -46.44919 2458 ft 1 kts 264°
2026-04-25 17:12 -23.42509 -46.44938 2455 ft 0 kts 255°
2026-04-25 17:12 -23.42515 -46.44960 2455 ft 21 kts 255°
2026-04-25 17:13 -23.42623 -46.45361 2456 ft 87 kts 253°
2026-04-25 17:13 -23.42687 -46.45586 2452 ft 104 kts 253°
2026-04-25 17:13 -23.43145 -46.47288 2570 ft 165 kts 256°
2026-04-25 17:13 -23.43481 -46.48504 3055 ft 173 kts 256°
2026-04-25 17:14 -23.43825 -46.49760 3659 ft 169 kts 255°
2026-04-25 17:14 -23.44157 -46.50994 4147 ft 176 kts 255°
2026-04-25 17:14 -23.44517 -46.52347 4514 ft 195 kts 255°
2026-04-25 17:14 -23.44921 -46.53850 4897 ft 220 kts 255°
2026-04-25 17:15 -23.45377 -46.55485 5691 ft 227 kts 249°
2026-04-25 17:15 -23.46299 -46.56876 6659 ft 232 kts 219°
2026-04-25 17:15 -23.47761 -46.57576 7468 ft 239 kts 188°
2026-04-25 17:15 -23.49443 -46.57500 8297 ft 245 kts 173°
2026-04-25 17:16 -23.51144 -46.57216 9175 ft 249 kts 172°
2026-04-25 17:16 -23.52787 -46.56590 10016 ft 255 kts 146°
2026-04-25 17:16 -23.53981 -46.55176 10757 ft 259 kts 116°
2026-04-25 17:16 -23.54565 -46.53299 11401 ft 269 kts 104°
2026-04-25 17:17 -23.55021 -46.51231 11754 ft 292 kts 102°
2026-04-25 17:17 -23.55495 -46.48987 12067 ft 316 kts 102°
2026-04-25 17:17 -23.56025 -46.46596 12338 ft 340 kts 103°
2026-04-25 17:17 -23.56625 -46.44018 12609 ft 361 kts 104°
2026-04-25 17:18 -23.57265 -46.41339 13262 ft 369 kts 104°
2026-04-25 17:18 -23.57730 -46.38581 13998 ft 372 kts 94°
2026-04-25 17:18 -23.57674 -46.35752 14644 ft 376 kts 81°
2026-04-25 17:18 -23.57126 -46.32943 15291 ft 381 kts 75°
2026-04-25 17:19 -23.56489 -46.30120 15929 ft 386 kts 75°
2026-04-25 17:19 -23.55854 -46.27266 16563 ft 390 kts 75°
2026-04-25 17:19 -23.55214 -46.24371 17178 ft 395 kts 75°
2026-04-25 17:19 -23.54578 -46.21482 17776 ft 400 kts 75°
2026-04-25 17:20 -23.53927 -46.18523 18341 ft 404 kts 75°
2026-04-25 17:20 -23.53266 -46.15530 18848 ft 409 kts 75°
2026-04-25 17:20 -23.52596 -46.12504 19328 ft 413 kts 75°
2026-04-25 17:20 -23.51916 -46.09444 19824 ft 417 kts 75°
2026-04-25 17:21 -23.51008 -46.06442 20299 ft 420 kts 62°
2026-04-25 17:21 -23.49411 -46.03789 20798 ft 420 kts 46°
2026-04-25 17:21 -23.47230 -46.01690 21276 ft 420 kts 31°
2026-04-25 17:21 -23.44637 -46.00223 21736 ft 420 kts 17°
2026-04-25 17:22 -23.41845 -45.99482 21947 ft 418 kts
2026-04-25 17:22 -23.40870 -45.99370 21976 ft 417 kts
2026-04-25 17:22 -23.36065 -45.99221 22001 ft 415 kts 357°
2026-04-25 17:22 -23.33177 -45.99205 22007 ft 415 kts 357°
2026-04-25 17:23 -23.30289 -45.99162 22010 ft 415 kts 358°
2026-04-25 17:23 -23.28377 -45.99117 22014 ft 415 kts 358°
2026-04-25 17:23 -23.25484 -45.99032 22012 ft 416 kts 358°
2026-04-25 17:23 -23.22579 -45.98936 22230 ft 420 kts 358°
2026-04-25 17:24 -23.19653 -45.98833 22794 ft 422 kts 359°
2026-04-25 17:24 -23.16705 -45.98728 23268 ft 426 kts 358°
2026-04-25 17:24 -23.12757 -45.98588 23826 ft 431 kts 358°
2026-04-25 17:24 -23.10736 -45.98516 24133 ft 432 kts 358°
2026-04-25 17:25 -23.07729 -45.98409 24553 ft 434 kts 358°
2026-04-25 17:25 -23.03705 -45.98266 25086 ft 438 kts 358°
2026-04-25 17:25 -23.00652 -45.98159 25503 ft 440 kts 358°
2026-04-25 17:25 -22.98617 -45.98087 25744 ft 443 kts 358°
2026-04-25 17:26 -22.95534 -45.97978 26139 ft 445 kts 358°
2026-04-25 17:26 -22.92430 -45.97838 26529 ft 449 kts
2026-04-25 17:26 -22.89350 -45.97203 26896 ft 457 kts 13°
2026-04-25 17:26 -22.86377 -45.95889 27224 ft 465 kts 25°
2026-04-25 17:27 -22.83641 -45.93972 27583 ft 471 kts 32°
2026-04-25 17:27 -22.81087 -45.92025 27897 ft 474 kts 32°
2026-04-25 17:27 -22.78377 -45.89972 28233 ft 477 kts 32°
2026-04-25 17:27 -22.76576 -45.88612 28476 ft 478 kts 32°
2026-04-25 17:28 -22.72949 -45.85879 28908 ft 482 kts 32°
2026-04-25 17:28 -22.70184 -45.83798 29244 ft 484 kts 32°
2026-04-25 17:28 -22.67415 -45.81716 29582 ft 486 kts 32°
2026-04-25 17:28 -22.64630 -45.79623 29913 ft 489 kts 32°
2026-04-25 17:29 -22.61824 -45.77516 30214 ft 492 kts 31°
2026-04-25 17:29 -22.59006 -45.75401 30492 ft 494 kts 32°
2026-04-25 17:29 -22.56181 -45.73280 30816 ft 495 kts 32°
2026-04-25 17:29 -22.53339 -45.71149 31147 ft 497 kts 32°
2026-04-25 17:30 -22.50504 -45.69023 31549 ft 496 kts 32°
2026-04-25 17:30 -22.47710 -45.66929 31979 ft 495 kts 32°
2026-04-25 17:30 -22.44883 -45.64812 32369 ft 494 kts 32°
2026-04-25 17:30 -22.42057 -45.62697 32771 ft 493 kts 32°
2026-04-25 17:31 -22.39238 -45.60587 33201 ft 492 kts 32°
2026-04-25 17:31 -22.36433 -45.58490 33597 ft 491 kts 32°
2026-04-25 17:31 -22.33627 -45.56392 33976 ft 490 kts 32°
2026-04-25 17:31 -22.30823 -45.54298 34315 ft 489 kts 32°
2026-04-25 17:32 -22.28032 -45.52214 34635 ft 488 kts 32°
2026-04-25 17:32 -22.25271 -45.50155 34904 ft 488 kts 32°
2026-04-25 17:32 -22.22484 -45.48076 35240 ft 487 kts 32°
2026-04-25 17:32 -22.19703 -45.46004 35552 ft 485 kts 32°
2026-04-25 17:33 -22.16927 -45.43936 35848 ft 485 kts 32°
2026-04-25 17:33 -22.14150 -45.41868 36140 ft 484 kts 32°
2026-04-25 17:33 -22.11376 -45.39804 36444 ft 483 kts 32°
2026-04-25 17:33 -22.08620 -45.37753 36732 ft 483 kts 32°
2026-04-25 17:34 -22.05891 -45.35724 37023 ft 481 kts 32°
2026-04-25 17:34 -22.03174 -45.33637 37313 ft 481 kts 36°
2026-04-25 17:34 -22.00540 -45.31408 37584 ft 480 kts 36°
2026-04-25 17:34 -21.97918 -45.29187 37864 ft 479 kts 36°
2026-04-25 17:35 -21.95306 -45.26978 38115 ft 478 kts 36°
2026-04-25 17:35 -21.92689 -45.24768 38382 ft 477 kts 36°
2026-04-25 17:35 -21.90082 -45.22568 38635 ft 475 kts 36°
2026-04-25 17:35 -21.87484 -45.20378 38848 ft 474 kts 36°
2026-04-25 17:36 -21.84923 -45.18220 38984 ft 474 kts 36°
2026-04-25 17:36 -21.82319 -45.16028 39002 ft 478 kts 36°
2026-04-25 17:36 -21.77042 -45.11589 39001 ft 483 kts 36°
2026-04-25 17:37 -21.71755 -45.07142 39006 ft 482 kts 36°
2026-04-25 17:37 -21.66480 -45.02711 39003 ft 481 kts 36°
2026-04-25 17:38 -21.62096 -44.99032 39004 ft 481 kts 36°
2026-04-25 17:38 -21.55962 -44.93889 39005 ft 481 kts 36°
2026-04-25 17:39 -21.50685 -44.89469 39007 ft 481 kts 36°
2026-04-25 17:39 -21.45416 -44.85060 39007 ft 480 kts 36°
2026-04-25 17:40 -21.40183 -44.80687 39000 ft 480 kts 36°
2026-04-25 17:40 -21.34915 -44.76286 38999 ft 480 kts 36°
2026-04-25 17:41 -21.29652 -44.71891 39003 ft 479 kts 36°
2026-04-25 17:41 -21.24393 -44.67503 39001 ft 479 kts 36°
2026-04-25 17:42 -21.22090 -44.65583 39001 ft 479 kts 36°
2026-04-25 17:42 -21.19612 -44.63518 39005 ft 479 kts 36°
2026-04-25 17:43 -21.15771 -44.60318 39003 ft 479 kts 36°
2026-04-25 17:43 -21.10666 -44.56070 39003 ft 479 kts 36°
2026-04-25 17:44 -21.07481 -44.53421 39005 ft 479 kts 36°
2026-04-25 17:44 -21.05184 -44.51512 39002 ft 479 kts 36°
2026-04-25 17:45 -21.00816 -44.47883 39007 ft 479 kts 36°
2026-04-25 17:45 -20.94672 -44.42785 39009 ft 478 kts 36°
2026-04-25 17:46 -20.89407 -44.38422 39006 ft 478 kts 36°
2026-04-25 17:46 -20.84186 -44.34101 39014 ft 478 kts 36°
2026-04-25 17:47 -20.78925 -44.29749 39009 ft 478 kts 36°
2026-04-25 17:47 -20.73675 -44.25410 39010 ft 477 kts 36°
2026-04-25 17:48 -20.65798 -44.18910 39007 ft 477 kts 36°
2026-04-25 17:49 -20.60590 -44.14585 39009 ft 477 kts 36°
2026-04-25 17:49 -20.55394 -44.10170 39010 ft 478 kts 38°
2026-04-25 17:50 -20.50764 -44.05084 39011 ft 480 kts 50°
2026-04-25 17:50 -20.47147 -43.99148 39010 ft 482 kts 60°
2026-04-25 17:51 -20.43937 -43.92881 39011 ft 482 kts 60°
2026-04-25 17:51 -20.40698 -43.86623 39015 ft 482 kts 60°
2026-04-25 17:52 -20.37462 -43.80377 39018 ft 482 kts 60°
2026-04-25 17:52 -20.34219 -43.74124 39025 ft 482 kts 60°
2026-04-25 17:53 -20.30997 -43.67916 39021 ft 482 kts 60°
2026-04-25 17:53 -20.27754 -43.61675 39023 ft 481 kts 60°
2026-04-25 17:54 -20.24510 -43.55438 39021 ft 481 kts 60°
2026-04-25 17:54 -20.21265 -43.49207 39021 ft 481 kts 60°
2026-04-25 17:55 -20.18042 -43.43023 39012 ft 481 kts 60°
2026-04-25 17:55 -20.14795 -43.36802 39008 ft 480 kts 60°
2026-04-25 17:56 -20.11550 -43.30591 38999 ft 480 kts 60°
2026-04-25 17:56 -20.08426 -43.24325 38998 ft 480 kts 62°
2026-04-25 17:57 -20.05440 -43.17989 38996 ft 479 kts 62°
2026-04-25 17:57 -20.02447 -43.11713 38992 ft 478 kts 62°
2026-04-25 17:58 -19.99419 -43.05416 38988 ft 478 kts 62°
2026-04-25 17:58 -19.96274 -42.99193 38981 ft 477 kts 57°
2026-04-25 17:59 -19.92314 -42.93559 38983 ft 475 kts 47°
2026-04-25 17:59 -19.88026 -42.88294 38978 ft 475 kts 48°
2026-04-25 18:00 -19.83721 -42.82976 38977 ft 474 kts 48°
2026-04-25 18:00 -19.79422 -42.77672 38982 ft 474 kts 48°
2026-04-25 18:01 -19.75124 -42.72376 38977 ft 473 kts 48°
2026-04-25 18:01 -19.70828 -42.67089 38986 ft 473 kts 48°
2026-04-25 18:02 -19.66558 -42.61845 38997 ft 472 kts 48°
2026-04-25 18:02 -19.62257 -42.56576 39008 ft 472 kts 48°
2026-04-25 18:03 -19.57957 -42.51312 39020 ft 472 kts 48°
2026-04-25 18:03 -19.53691 -42.46089 39013 ft 471 kts 48°
2026-04-25 18:04 -19.49408 -42.40836 39017 ft 471 kts 48°
2026-04-25 18:04 -19.45120 -42.35582 39017 ft 471 kts 48°
2026-04-25 18:05 -19.40829 -42.30331 39002 ft 471 kts 48°
2026-04-25 18:05 -19.36532 -42.25076 38993 ft 471 kts 48°
2026-04-25 18:06 -19.32241 -42.19834 38980 ft 472 kts 48°
2026-04-25 18:06 -19.27970 -42.14622 38972 ft 471 kts 48°
2026-04-25 18:07 -19.23672 -42.09379 38973 ft 472 kts 48°
2026-04-25 18:07 -19.19372 -42.04138 38967 ft 472 kts 48°
2026-04-25 18:08 -19.15092 -41.98928 38972 ft 472 kts 48°
2026-04-25 18:08 -19.10827 -41.93749 38969 ft 472 kts 47°
2026-04-25 18:09 -19.06509 -41.88523 38966 ft 472 kts 47°
2026-04-25 18:09 -19.02189 -41.83286 38967 ft 472 kts 47°
2026-04-25 18:10 -18.97876 -41.78054 38964 ft 472 kts 47°
2026-04-25 18:10 -18.93586 -41.72856 38966 ft 473 kts 47°
2026-04-25 18:11 -18.89261 -41.67620 38965 ft 473 kts 47°
2026-04-25 18:11 -18.84938 -41.62391 38964 ft 473 kts 47°
2026-04-25 18:12 -18.80615 -41.57167 38963 ft 473 kts 47°
2026-04-25 18:12 -18.76311 -41.51970 38964 ft 473 kts 47°
2026-04-25 18:13 -18.71984 -41.46749 38962 ft 473 kts 47°
2026-04-25 18:13 -18.67644 -41.41519 38967 ft 473 kts 47°
2026-04-25 18:14 -18.61140 -41.33690 38973 ft 473 kts 47°
2026-04-25 18:14 -18.56827 -41.28501 38973 ft 473 kts 47°
2026-04-25 18:15 -18.52485 -41.23284 38970 ft 473 kts 47°
2026-04-25 18:15 -18.48142 -41.18070 38968 ft 474 kts 47°
2026-04-25 18:16 -18.43791 -41.12851 38975 ft 474 kts 47°
2026-04-25 18:17 -18.37294 -41.05064 38972 ft 474 kts 47°
2026-04-25 18:17 -18.32938 -40.99850 38971 ft 474 kts 47°
2026-04-25 18:18 -18.28583 -40.94641 38969 ft 474 kts 47°
2026-04-25 18:18 -18.24221 -40.89428 38969 ft 475 kts 47°
2026-04-25 18:19 -18.19887 -40.84249 38973 ft 475 kts 47°
2026-04-25 18:19 -18.15521 -40.79038 38973 ft 475 kts 47°
2026-04-25 18:20 -18.11151 -40.73825 38972 ft 475 kts 47°
2026-04-25 18:20 -18.06777 -40.68612 38976 ft 475 kts 47°
2026-04-25 18:21 -18.02431 -40.63437 38972 ft 475 kts 48°
2026-04-25 18:21 -17.98055 -40.58231 38974 ft 475 kts 48°
2026-04-25 18:22 -17.93682 -40.53032 38974 ft 475 kts 47°
2026-04-25 18:22 -17.89319 -40.47849 38773 ft 472 kts 48°
2026-04-25 18:22 -17.87145 -40.45268 38208 ft 471 kts 48°
2026-04-25 18:23 -17.84973 -40.42690 37479 ft 472 kts 48°
2026-04-25 18:23 -17.82822 -40.40139 36729 ft 473 kts 48°
2026-04-25 18:23 -17.80641 -40.37553 35975 ft 474 kts 48°
2026-04-25 18:23 -17.78451 -40.34958 35249 ft 475 kts 48°
2026-04-25 18:24 -17.76259 -40.32362 34521 ft 476 kts 48°
2026-04-25 18:24 -17.74063 -40.29766 33757 ft 477 kts 48°
2026-04-25 18:24 -17.71856 -40.27160 32895 ft 478 kts 48°
2026-04-25 18:24 -17.69644 -40.24550 31995 ft 480 kts 48°
2026-04-25 18:25 -17.67416 -40.21920 31096 ft 483 kts 48°
2026-04-25 18:25 -17.65179 -40.19281 30319 ft 483 kts 49°
2026-04-25 18:25 -17.62993 -40.16703 29703 ft 478 kts 49°
2026-04-25 18:25 -17.60800 -40.14117 29069 ft 472 kts 49°
2026-04-25 18:26 -17.58630 -40.11560 28407 ft 467 kts 49°
2026-04-25 18:26 -17.56479 -40.09026 27765 ft 463 kts 49°
2026-04-25 18:26 -17.54347 -40.06515 27128 ft 459 kts 49°
2026-04-25 18:26 -17.52239 -40.04035 26510 ft 455 kts 49°
2026-04-25 18:27 -17.50144 -40.01570 25895 ft 451 kts 49°
2026-04-25 18:27 -17.48060 -39.99120 25299 ft 448 kts 49°
2026-04-25 18:27 -17.46001 -39.96702 24717 ft 444 kts 48°
2026-04-25 18:27 -17.43810 -39.94491 24140 ft 442 kts 41°
2026-04-25 18:28 -17.41343 -39.92587 23568 ft 440 kts 33°
2026-04-25 18:28 -17.38681 -39.91032 22946 ft 436 kts 27°
2026-04-25 18:28 -17.35995 -39.89594 22362 ft 431 kts 28°
2026-04-25 18:29 -17.30718 -39.86739 21216 ft 422 kts 28°
2026-04-25 18:29 -17.28122 -39.85333 20653 ft 418 kts 28°
2026-04-25 18:30 -17.20535 -39.81228 19048 ft 405 kts 28°
2026-04-25 18:30 -17.18039 -39.79880 18527 ft 402 kts 28°
2026-04-25 18:30 -17.15567 -39.78544 17961 ft 398 kts 28°
2026-04-25 18:30 -17.13127 -39.77225 17367 ft 394 kts 27°
2026-04-25 18:31 -17.10702 -39.75913 16810 ft 390 kts 27°
2026-04-25 18:31 -17.08302 -39.74615 16242 ft 387 kts 27°
2026-04-25 18:31 -17.05928 -39.73331 15702 ft 383 kts 27°
2026-04-25 18:31 -17.03567 -39.72055 15160 ft 380 kts 26°
2026-04-25 18:32 -17.01277 -39.70719 14645 ft 376 kts 30°
2026-04-25 18:32 -16.99075 -39.69327 14153 ft 373 kts 30°
2026-04-25 18:32 -16.96868 -39.67936 13630 ft 370 kts 30°
2026-04-25 18:32 -16.94671 -39.66554 13061 ft 366 kts 30°
2026-04-25 18:33 -16.92497 -39.65188 12512 ft 363 kts 30°
2026-04-25 18:33 -16.90341 -39.63835 11962 ft 361 kts 30°
2026-04-25 18:33 -16.88201 -39.62491 11455 ft 357 kts 30°
2026-04-25 18:33 -16.86102 -39.61174 10944 ft 355 kts 30°
2026-04-25 18:34 -16.83971 -39.59836 10439 ft 352 kts 30°
2026-04-25 18:34 -16.81920 -39.58550 10176 ft 345 kts 30°
2026-04-25 18:34 -16.79837 -39.57245 10025 ft 352 kts 30°
2026-04-25 18:34 -16.77742 -39.55932 9834 ft 350 kts 30°
2026-04-25 18:35 -16.75667 -39.54630 9476 ft 346 kts 30°
2026-04-25 18:35 -16.73672 -39.53336 9289 ft 329 kts 34°
2026-04-25 18:35 -16.71902 -39.51935 9106 ft 309 kts 37°
2026-04-25 18:35 -16.70246 -39.50618 8929 ft 290 kts 37°
2026-04-25 18:36 -16.68668 -39.49370 8533 ft 281 kts 36°
2026-04-25 18:36 -16.67132 -39.48159 8132 ft 281 kts 37°
2026-04-25 18:36 -16.65581 -39.46936 7785 ft 279 kts 37°
2026-04-25 18:36 -16.64037 -39.45717 7426 ft 277 kts 37°
2026-04-25 18:37 -16.62508 -39.44510 7095 ft 275 kts 37°
2026-04-25 18:37 -16.60987 -39.43309 6744 ft 274 kts 37°
2026-04-25 18:37 -16.59468 -39.42109 6415 ft 273 kts 38°
2026-04-25 18:37 -16.57960 -39.40918 6059 ft 271 kts 38°
2026-04-25 18:38 -16.56470 -39.39741 5604 ft 268 kts 38°
2026-04-25 18:38 -16.54984 -39.38567 5102 ft 267 kts 38°
2026-04-25 18:38 -16.53509 -39.37402 4634 ft 264 kts 38°
2026-04-25 18:38 -16.52091 -39.36246 4180 ft 260 kts 45°
2026-04-25 18:39 -16.51055 -39.34747 3808 ft 255 kts 68°
2026-04-25 18:39 -16.50534 -39.32963 3637 ft 258 kts 76°
2026-04-25 18:39 -16.50067 -39.31174 3463 ft 255 kts 76°
2026-04-25 18:39 -16.49593 -39.29409 3212 ft 248 kts 76°
2026-04-25 18:40 -16.49142 -39.27737 3078 ft 231 kts 75°
2026-04-25 18:40 -16.48724 -39.26188 2943 ft 215 kts 75°
2026-04-25 18:40 -16.48333 -39.24744 2837 ft 198 kts 76°
2026-04-25 18:40 -16.47981 -39.23443 2774 ft 178 kts 76°
2026-04-25 18:41 -16.47663 -39.22261 2617 ft 166 kts 76°
2026-04-25 18:41 -16.47358 -39.21130 2265 ft 160 kts 76°
2026-04-25 18:41 -16.47076 -39.20075 2112 ft 142 kts 76°
2026-04-25 18:41 -16.46821 -39.19126 1884 ft 132 kts 76°
2026-04-25 18:42 -16.46581 -39.18228 1836 ft 131 kts 76°
2026-04-25 18:42 -16.46496 -39.17912 1837 ft 137 kts 76°
2026-04-25 18:42 -16.46070 -39.16313 1741 ft 138 kts 76°
2026-04-25 18:42 -16.45813 -39.15364 1541 ft 134 kts 76°
2026-04-25 18:43 -16.45565 -39.14446 1279 ft 133 kts 76°
2026-04-25 18:43 -16.45321 -39.13541 1114 ft 130 kts 77°
2026-04-25 18:43 -16.45070 -39.12616 910 ft 134 kts 76°
2026-04-25 18:43 -16.44818 -39.11699 827 ft 130 kts 75°
2026-04-25 18:44 -16.44558 -39.10766 633 ft 136 kts 75°
2026-04-25 18:44 -16.44320 -39.09835 392 ft 130 kts 76°
2026-04-25 18:44 -16.44072 -39.08917 208 ft 132 kts 75°
2026-04-25 18:44 -16.43839 -39.08044 159 ft 99 kts 74°
2026-04-25 18:45 -16.43733 -39.07645 162 ft 27 kts 75°
2026-04-25 18:45 -16.43680 -39.07440 162 ft 32 kts 75°
2026-04-25 18:45 -16.43633 -39.07271 161 ft 0 kts 88°
2026-04-25 18:45 -16.43641 -39.07240 160 ft 10 kts 107°
2026-04-25 18:46 -16.43630 -39.07193 160 ft 6 kts
2026-04-25 18:46 -16.43620 -39.07233 160 ft 8 kts 252°
2026-04-25 18:46 -16.43641 -39.07306 161 ft 15 kts 254°
2026-04-25 18:46 -16.43674 -39.07431 162 ft 20 kts 254°
2026-04-25 18:47 -16.43717 -39.07581 162 ft 23 kts 254°
2026-04-25 18:47 -16.43763 -39.07752 161 ft 25 kts 256°
2026-04-25 18:47 -16.43811 -39.07939 159 ft 28 kts 255°
2026-04-25 18:47 -16.43857 -39.08103 159 ft 9 kts 253°
2026-04-25 18:48 -16.43906 -39.08139 159 ft 10 kts 166°
2026-04-25 18:48 -16.43952 -39.08126 159 ft 0 kts 165°
2026-04-25 18:49 -16.43979 -39.08118 159 ft 0 kts 165°
2026-04-25 18:53 -16.43999 -39.08113 159 ft 9 kts 165°
2026-04-25 18:53 -16.44057 -39.08096 160 ft 9 kts 163°
2026-04-25 18:53 -16.44066 -39.08094 160 ft 0 kts 163°